Flag Weather past 2 weeks in Santiago de Cuba, Cuba

Now
81 °F

Passing clouds.


Feels Like: 85 °F
Forecast: 73 / 89 °F
Wind: 6 mph from Southeast

Location: Santiago De Cuba - Oriente

Current Time: Nov 23, 2014 at 7:33:27 PM

Latest Report: Nov 23, 2014 at 6:50 PM


Visibility: 6 mi

Pressure: 29.95 "Hg

Humidity: 74%

Dew point: 72 °F

Location of Santiago de CubaLocation

Historic Weather in Santiago de Cuba — Graph

°F

Santiago de Cuba temperature yesterday

Maximum temperature yesterday: 86 °F (at 9:50 AM)
Minimum temperature yesterday: 73 °F (at 12:50 AM)
Average temperature yesterday: 79 °F

Past Weeks' High & Low Weather Summary

 TemperatureHumidityPressure
High90 °F (Nov 13, 11:53 AM)94% (Nov 9, 3:53 AM)30.09 "Hg (Nov 9, 3:53 AM)
Low70 °F (Nov 9, 2:53 AM)38% (Nov 13, 11:53 AM)29.83 "Hg (Nov 11, 2:50 PM)
Average79 °F74%29.96 "Hg
* Reported Nov 8 5:50 PM — Nov 23 5:51 PM, Santiago de Cuba, Weather by CustomWeather, © 2014

Note: Actual official high and low records may vary slightly from our data, if they occured in-between our weather recording intervals... More about our weather records

Advertising

Santiago de Cuba weather history for previous 24 hours

 ConditionsComfort  
Time TempWeatherWind HumidityBarometerVisibility
5:51 PM
Nov 23
82 °FPassing clouds.9 mph70%29.92 "Hg6 mi
4:52 PM82 °FPassing clouds.9 mph70%29.92 "HgN/A
3:52 PM84 °FPassing clouds.10 mph66%29.92 "HgN/A
2:51 PM86 °FPassing clouds.13 mph66%29.92 "HgN/A
1:52 PM86 °FScattered clouds.14 mph62%29.92 "HgN/A
12:51 PM88 °FScattered clouds.14 mph62%29.95 "HgN/A
11:51 AM86 °FScattered clouds.16 mph66%29.98 "HgN/A
10:52 AM86 °FPassing clouds.14 mph66%29.98 "HgN/A
9:50 AM86 °FPassing clouds.10 mph62%30.01 "HgN/A
8:51 AM84 °FPassing clouds.7 mph62%30.01 "Hg6 mi
7:51 AM81 °FPassing clouds.5 mph66%29.98 "Hg6 mi
6:52 AM75 °FScattered clouds.5 mph78%29.98 "Hg6 mi
5:52 AM73 °FPassing clouds.5 mph78%29.95 "Hg6 mi
4:51 AM73 °FPassing clouds.5 mph78%29.95 "Hg6 mi
3:51 AM73 °FPassing clouds.5 mph83%29.95 "Hg6 mi
2:51 AM73 °FPassing clouds.6 mph83%29.95 "Hg6 mi
1:51 AM75 °FPassing clouds.6 mph74%29.95 "Hg6 mi
12:51 AM75 °FPassing clouds.5 mph74%29.98 "Hg6 mi
11:51 PM
Nov 22
75 °FPassing clouds.5 mph74%29.98 "Hg6 mi
10:52 PM75 °FPassing clouds.6 mph78%29.98 "Hg6 mi
9:52 PM75 °FPassing clouds.5 mph78%30.01 "Hg6 mi
8:51 PM77 °FPassing clouds.6 mph74%29.98 "Hg6 mi
7:51 PM79 °FPassing clouds.8 mph70%29.98 "Hg6 mi
Weather by CustomWeather, © 2014

See weather overviewHow to use our weather pages